DECAYED

COSMOS 2251 DEB, 38004 (Decayed)

Orbit data source: Space-Track

COSMOS 2251 DEB, 38004 was space debris in LEO originally from a launch on Wed, 16 Jun 1993 UTC launched from the Plesetsk Missile And Space Complex (PKMTR). The debris from Iridium 33, an American commercial communications satellite, has been tracked extensively since its accidental collision with the defunct Russian satellite Cosmos 2251 in 2009. This event, occurring at high speed in low Earth orbit (LEO), generated thousands of pieces of space debris, significantly increasing the risk of further collisions. The Iridium 33 debris cloud has impacted space traffic management and orbital debris mitigation strategies, making it a subject of ongoing study in space situational awareness.

Not visible in the next 10 days
Identifier
38004, 1993-036BRF
Orbit
Decayed
Country
Flag of CISCIS
Related business
Manufacturer
Unknown
Mission
Decayed spacecraft
Bus & Motor
Unknown
Mass
Unknown
Launch date (UTC)
1993-06-16 (33 years ago)
Launch vehicle
Unknown
Launch site
Plesetsk Missile And Space Complex (PKMTR)
Object type
Payload
Rocket body
Debris
Shape & HBR
Unknown shape, 0.1 m
Radar Cross Section
Small (<0.1 m²)

Expand to show TLE details & history
Last TLE update: 2 years ago

TLE from 2 years ago
0 COSMOS 2251 DEB
1 38004U 93036BRF 25073.05315645  .00195958  00000-0  12419-1 0  9997
2 38004  74.0163 208.2648 0015636 349.2345  10.8508 15.07824264617778
Epoch: 2025-03-14T01:16Z
TLE epoch observation values (Epoch: 2025-03-14T01:16:32.717Z)
Latitude
-0.00007°
Longitude
17.20989°
Altitude
534.917 km
Speed
7.601 km/s
True Right ascension
13h 53m 03s
True Declination
0° 00' 00"
Sunlit
Object was in full shadow at epoch
Visualization orbit readout
Latitude
Unknown
Longitude
Unknown
Altitude
Unknown
Speed
Unknown
Apparent Right ascension
Unknown
Apparent Declination
Unknown
Sunlit
N/A
Visualization observer readout
Local Sidereal Time
13:03:14
Azimuth
Unknown
Elevation
Unknown
Doppler factor
Unknown
Orbital elements
Apogee altitude
551.215 km
Perigee altitude
529.579 km
Semi-major axis
6,918.534 km
Eccentricity
0.00156
Inclination
74.0163°
RAAN
208.2648°
Arg. of periapsis
349.2345°
True anomaly
10.8846°
Mean anomaly
10.8508°
Eccentric anomaly
10.86769°
Mean motion
3.77157 °/min
Orbital period
95.45 mins
BSTAR
0.012419
Loading maneuver chart data...
Computing Atmospheric mass density...

Documentation

Showing up to 5 results
|